H1 CPF 2 NER 2025 12 4 9 338 01 glonass137 H2 1705501 9137 42939 2025 12 4 0 0 0 2025 12 7 23 45 0 900 1 1 0 0 0 1 H9 10 0 61013 0.00000 0 -13974099.447 1784446.742 21275750.567 10 0 61013 900.00000 0 -12459048.466 -430564.151 22262867.830 10 0 61013 1800.00000 0 -11058864.457 -2830659.628 22818019.365 10 0 61013 2700.00000 0 -9815461.729 -5361673.811 22930366.069 10 0 61013 3600.00000 0 -8760814.929 -7962586.492 22597647.827 10 0 61013 4500.00000 0 -7915726.565 -10567829.426 21826233.315 10 0 61013 5400.00000 0 -7289078.915 -13109793.274 20631004.009 10 0 61013 6300.00000 0 -6877601.425 -15521432.189 19035073.958 10 0 61013 7200.00000 0 -6666163.225 -17738858.607 17069349.957 10 0 61013 8100.00000 0 -6628578.460 -19703820.812 14771939.676 10 0 61013 9000.00000 0 -6728890.550 -21365960.348 12187418.351 10 0 61013 9900.00000 0 -6923081.227 -22684755.020 9365967.528 10 0 61013 10800.00000 0 -7161132.054 -23631066.116 6362402.054 10 0 61013 11700.00000 0 -7389351.001 -24188224.788 3235103.981 10 0 61013 12600.00000 0 -7552865.054 -24352611.719 44884.264 10 0 61013 13500.00000 0 -7598172.522 -24133705.594 -3146205.176 10 0 61013 14400.00000 0 -7475645.953 -23553598.303 -6276085.245 10 0 61013 15300.00000 0 -7141878.388 -22645997.471 -9283864.763 10 0 61013 16200.00000 0 -6561772.383 -21454758.754 -12111032.312 10 0 61013 17100.00000 0 -5710282.043 -20032010.254 -14702600.742 10 0 61013 18000.00000 0 -4573733.214 -18435948.731 -17008181.358 10 0 61013 18900.00000 0 -3150664.907 -16728401.026 -18982966.396 10 0 61013 19800.00000 0 -1452155.482 -14972253.795 -20588600.541 10 0 61013 20700.00000 0 498381.086 -13228859.975 -21793924.576 10 0 61013 21600.00000 0 2665921.058 -11555530.924 -22575577.118 10 0 61013 22500.00000 0 5005049.260 -10003219.205 -22918443.254 10 0 61013 23400.00000 0 7461619.523 -8614488.586 -22815941.990 10 0 61013 24300.00000 0 9974788.527 -7421855.455 -22270147.605 10 0 61013 25200.00000 0 12479338.825 -6446569.927 -21291743.090 10 0 61013 26100.00000 0 14908194.813 -5697886.458 -19899807.050 10 0 61013 27000.00000 0 17195027.464 -5172853.056 -18121438.512 10 0 61013 27900.00000 0 19276840.002 -4856626.507 -15991227.048 10 0 61013 28800.00000 0 21096427.395 -4723298.992 -13550578.552 10 0 61013 29700.00000 0 22604607.865 -4737200.102 -10846909.703 10 0 61013 30600.00000 0 23762133.998 -4854618.331 -7932726.628 10 0 61013 31500.00000 0 24541204.358 -5025868.648 -4864605.609 10 0 61013 32400.00000 0 24926513.149 -5197618.188 -1702095.551 10 0 61013 33300.00000 0 24915794.713 -5315371.356 1493436.508 10 0 61013 34200.00000 0 24519840.743 -5326008.942 4659994.385 10 0 61013 35100.00000 0 23761990.091 -5180273.672 7736153.145 10 0 61013 36000.00000 0 22677113.076 -4835096.855 10662247.627 10 0 61013 36900.00000 0 21310133.244 -4255667.600 13381526.122 10 0 61013 37800.00000 0 19714148.724 -3417156.842 15841247.006 10 0 61013 38700.00000 0 17948231.894 -2306022.985 17993697.428 10 0 61013 39600.00000 0 16074999.303 -920843.400 19797114.670 10 0 61013 40500.00000 0 14158053.106 727364.140 21216492.849 10 0 61013 41400.00000 0 12259400.422 2615344.837 22224259.850 10 0 61013 42300.00000 0 10436957.776 4708328.032 22800811.775 10 0 61013 43200.00000 0 8742244.068 6961237.641 22934894.905 10 0 61013 44100.00000 0 7218357.627 9320343.065 22623827.837 10 0 61013 45000.00000 0 5898321.128 11725283.471 21873559.364 10 0 61013 45900.00000 0 4803862.861 14111382.676 20698560.545 10 0 61013 46800.00000 0 3944684.799 16412159.610 19121552.405 10 0 61013 47700.00000 0 3318247.703 18561930.831 17173073.717 10 0 61013 48600.00000 0 2910081.979 20498397.330 14890896.318 10 0 61013 49500.00000 0 2694610.943 22165108.096 12319298.408 10 0 61013 50400.00000 0 2636451.625 23513697.511 9508209.175 10 0 61013 51300.00000 0 2692137.946 24505802.749 6512240.828 10 0 61013 52200.00000 0 2812193.068 25114580.435 3389626.588 10 0 61013 53100.00000 0 2943462.676 25325758.422 201085.437 10 0 61013 54000.00000 0 3031609.643 25138178.037 -2991363.920 10 0 61013 54900.00000 0 3023663.395 24563803.654 -6125616.097 10 0 61013 55800.00000 0 2870514.852 23627199.039 -9140694.596 10 0 61013 56700.00000 0 2529249.971 22364492.562 -11977945.315 10 0 61013 57600.00000 0 1965221.847 20821875.096 -14582183.918 10 0 61013 58500.00000 0 1153772.438 19053694.218 -16902773.971 10 0 61013 59400.00000 0 81530.027 17120225.331 -18894614.401 10 0 61013 60300.00000 0 -1252773.388 15085213.791 -20519016.885 10 0 61013 61200.00000 0 -2838000.106 13013291.550 -21744456.142 10 0 61013 62100.00000 0 -4650833.647 10967376.726 -22547178.902 10 0 61013 63000.00000 0 -6656525.756 9006164.824 -22911660.250 10 0 61013 63900.00000 0 -8810132.817 7181816.141 -22830899.064 10 0 61013 64800.00000 0 -11058190.506 5537935.235 -22306547.503 10 0 61013 65700.00000 0 -13340757.292 4107925.801 -21348872.592 10 0 61013 66600.00000 0 -15593741.984 2913788.413 -19976551.115 10 0 61013 67500.00000 0 -17751418.750 1965409.861 -18216302.130 10 0 61013 68400.00000 0 -19749025.252 1260372.204 -16102364.400 10 0 61013 69300.00000 0 -21525335.998 784287.928 -13675828.900 10 0 61013 70200.00000 0 -23025104.054 511645.583 -10983839.348 10 0 61013 71100.00000 0 -24201269.647 407128.948 -8078676.132 10 0 61013 72000.00000 0 -25016843.848 427352.973 -5016741.362 10 0 61013 72900.00000 0 -25446389.035 522942.351 -1857464.699 10 0 61013 73800.00000 0 -25477034.635 640864.203 1337848.855 10 0 61013 74700.00000 0 -25108986.034 726915.793 4507206.763 10 0 61013 75600.00000 0 -24355505.702 728261.711 7589129.305 10 0 61013 76500.00000 0 -23242367.647 595912.990 10523839.193 10 0 61013 77400.00000 0 -21806808.227 287043.159 13254417.440 10 0 61013 78300.00000 0 -20096017.336 -232956.890 15727903.253 10 0 61013 79200.00000 0 -18165232.993 -988772.273 17896316.956 10 0 61013 80100.00000 0 -16075518.741 -1993878.180 19717586.504 10 0 61013 81000.00000 0 -13891316.269 -3249729.524 21156360.145 10 0 61013 81900.00000 0 -11677874.769 -4745461.207 22184690.005 10 0 61013 82800.00000 0 -9498663.520 -6458112.836 22782573.751 10 0 61013 83700.00000 0 -7412874.733 -8353369.966 22938344.206 10 0 61013 84600.00000 0 -5473119.803 -10386792.471 22648899.433 10 0 61013 85500.00000 0 -3723414.164 -12505480.420 21919768.698 10 0 61014 0.00000 0 -2197534.099 -14650109.332 20765012.750 10 0 61014 900.00000 0 -917812.561 -16757252.508 19206959.004 10 0 61014 1800.00000 0 105574.246 -18761891.831 17275777.581 10 0 61014 2700.00000 0 874802.912 -20600016.869 15008903.444 10 0 61014 3600.00000 0 1404071.637 -22211201.328 12450316.401 10 0 61014 4500.00000 0 1718756.976 -23541050.281 9649691.642 10 0 61014 5400.00000 0 1854094.338 -24543415.295 6661436.845 10 0 61014 6300.00000 0 1853438.404 -25182284.050 3543634.296 10 0 61014 7200.00000 0 1766177.612 -25433264.451 356908.705 10 0 61014 8100.00000 0 1645391.732 -25284600.169 -2836756.886 10 0 61014 9000.00000 0 1545352.685 -24737674.210 -5975233.391 10 0 61014 9900.00000 0 1518975.570 -23806978.833 -8997461.705 10 0 61014 10800.00000 0 1615329.100 -22519552.771 -11844647.858 10 0 61014 11700.00000 0 1877312.111 -20913909.320 -14461413.198 10 0 61014 12600.00000 0 2339595.687 -19038500.521 -16796876.421 10 0 61014 13500.00000 0 3026919.020 -16949782.189 -18805645.936 10 0 61014 14400.00000 0 3952811.968 -14709961.291 -20448703.029 10 0 61014 15300.00000 0 5118799.016 -12384520.391 -21694158.712 10 0 61014 16200.00000 0 6514118.882 -10039622.912 -22517869.868 10 0 61014 17100.00000 0 8115972.152 -7739507.598 -22903903.234 10 0 61014 18000.00000 0 9890287.068 -5543980.685 -22844838.829 10 0 61014 18900.00000 0 11792971.855 -3506109.740 -22341907.568 10 0 61014 19800.00000 0 13771601.588 -1670214.407 -21404960.996 10 0 61014 20700.00000 0 15767469.472 -70236.632 -20052274.184 10 0 61014 21600.00000 0 17717917.215 1271443.117 -18310185.952 10 0 61014 22500.00000 0 19558847.518 2344695.843 -16212583.571 10 0 61014 23400.00000 0 21227314.077 3151813.092 -13800241.992 10 0 61014 24300.00000 0 22664081.215 3707149.760 -11120030.409 10 0 61014 25200.00000 0 23816046.471 4036257.250 -8224001.443 10 0 61014 26100.00000 0 24638425.066 4174544.907 -5168380.583 10 0 61014 27000.00000 0 25096605.116 4165527.315 -2012475.407 10 0 61014 27900.00000 0 25167596.125 4058732.409 1182474.234 10 0 61014 28800.00000 0 24841010.252 3907359.451 4354482.743 10 0 61014 29700.00000 0 24119535.407 3765786.372 7442018.972 10 0 61014 30600.00000 0 23018880.405 3687032.171 10385196.818 10 0 61014 31500.00000 0 21567194.465 3720281.871 13126933.196 10 0 61014 32400.00000 0 19803985.224 3908578.761 15614051.116 10 0 61014 33300.00000 0 17778580.231 4286781.550 17798306.803 10 0 61014 34200.00000 0 15548195.814 4879872.897 19637321.338 10 0 61014 35100.00000 0 13175693.332 5701691.016 21095399.252 10 0 61014 36000.00000 0 10727115.645 6754138.415 22144218.733 10 0 61014 36900.00000 0 8269105.606 8026901.911 22763380.490 10 0 61014 37800.00000 0 5866313.092 9497696.868 22940804.971 10 0 61014 38700.00000 0 3578897.510 11133026.799 22672970.365 10 0 61014 39600.00000 0 1460228.740 12889428.027 21964986.612 10 0 61014 40500.00000 0 -445118.689 14715148.886 20830503.643 10 0 61014 41400.00000 0 -2102995.477 16552194.720 19291454.941 10 0 61014 42300.00000 0 -3490864.192 18338654.410 17377640.631 10 0 61014 43200.00000 0 -4598493.746 20011212.045 15126157.237 10 0 61014 44100.00000 0 -5428133.175 21507739.287 12580684.275 10 0 61014 45000.00000 0 -5994157.947 22769859.925 9790640.755 10 0 61014 45900.00000 0 -6322204.169 23745378.969 6810227.421 10 0 61014 46800.00000 0 -6447827.745 24390473.753 3697373.038 10 0 61014 47700.00000 0 -6414745.705 24671554.223 512605.321 10 0 61014 48600.00000 0 -6272734.848 24566713.282 -2682131.159 10 0 61014 49500.00000 0 -6075277.533 24066705.234 -5824686.467 10 0 61014 50400.00000 0 -5877055.368 23175410.329 -8853921.705 10 0 61014 51300.00000 0 -5731398.086 21909765.188 -11710905.769 10 0 61014 52200.00000 0 -5687796.821 20299161.563 -14340068.273 10 0 61014 53100.00000 0 -5789588.213 18384338.515 -16690285.443 10 0 61014 54000.00000 0 -6071908.293 16215814.453 -18715877.347 10 0 61014 54900.00000 0 -6560003.554 13851924.869 -20377496.839 10 0 61014 55800.00000 0 -7267971.185 11356548.101 -21642892.943 10 0 61014 56700.00000 0 -8197982.161 8796614.286 -22487534.158 10 0 61014 57600.00000 0 -9340020.330 6239501.459 -22895080.064 10 0 61014 58500.00000 0 -10672148.786 3750427.177 -22857692.684 10 0 61014 59400.00000 0 -12161292.629 1389943.810 -22376182.193 10 0 61014 60300.00000 0 -13764505.530 -788359.007 -21459984.756 10 0 61014 61200.00000 0 -15430667.264 -2739850.144 -20126973.393 10 0 61014 62100.00000 0 -17102541.357 -4430469.225 -18403105.911 10 0 61014 63000.00000 0 -18719106.983 -5837889.705 -16321916.905 10 0 61014 63900.00000 0 -20218067.701 -6952185.908 -13923863.750 10 0 61014 64800.00000 0 -21538432.256 -7775977.916 -11255539.272 10 0 61014 65700.00000 0 -22623059.558 -8324050.001 -8368766.250 10 0 61014 66600.00000 0 -23421061.362 -8622460.204 -5319591.277 10 0 61014 67500.00000 0 -23889962.067 -8707179.970 -2167197.453 10 0 61014 68400.00000 0 -23997525.140 -8622322.343 1027243.052 10 0 61014 69300.00000 0 -23723169.592 -8418034.378 4201754.217 10 0 61014 70200.00000 0 -23058917.029 -8148143.476 7294756.182 10 0 61014 71100.00000 0 -22009829.457 -7867657.480 10246256.812 10 0 61014 72000.00000 0 -20593919.268 -7630224.437 12999011.705 10 0 61014 72900.00000 0 -18841534.847 -7485659.464 15499630.399 10 0 61014 73800.00000 0 -16794247.008 -7477643.170 17699607.603 10 0 61014 74700.00000 0 -14503282.236 -7641688.836 19556259.877 10 0 61014 75600.00000 0 -12027567.311 -8003464.162 21033550.082 10 0 61014 76500.00000 0 -9431465.972 -8577538.585 22102784.158 10 0 61014 77400.00000 0 -6782300.826 -9366609.376 22743167.145 10 0 61014 78300.00000 0 -4147762.573 -10361239.813 22942208.010 10 0 61014 79200.00000 0 -1593313.091 -11540121.429 22695965.568 10 0 61014 80100.00000 0 820310.697 -12870850.556 22009130.583 10 0 61014 81000.00000 0 3039389.417 -14311187.930 20894942.097 10 0 61014 81900.00000 0 5019215.854 -15810749.936 19374938.972 10 0 61014 82800.00000 0 6725709.244 -17313061.830 17478550.637 10 0 61014 83700.00000 0 8136582.627 -18757887.895 15242534.107 10 0 61014 84600.00000 0 9242015.023 -20083741.515 12710267.235 10 0 61014 85500.00000 0 10044800.825 -21230470.125 9930911.188 10 0 61015 0.00000 0 10559970.590 -22141806.303 6958458.094 10 0 61015 900.00000 0 10813899.972 -22767777.769 3850680.449 10 0 61015 1800.00000 0 10842944.358 -23066872.921 668006.802 10 0 61015 2700.00000 0 10691658.468 -23007871.417 -2527659.347 10 0 61015 3600.00000 0 10410676.336 -22571260.318 -5674149.929 10 0 61015 4500.00000 0 10054342.684 -21750175.588 -8710249.045 10 0 61015 5400.00000 0 9678196.952 -20550828.233 -11576891.269 10 0 61015 6300.00000 0 9336417.634 -18992396.356 -14218317.281 10 0 61015 7200.00000 0 9079336.121 -17106387.065 -16583163.556 10 0 61015 8100.00000 0 8951126.221 -14935494.662 -18625464.402 10 0 61015 9000.00000 0 8987767.760 -12532002.793 -20305546.599 10 0 61015 9900.00000 0 9215370.891 -9955797.365 -21590799.242 10 0 61015 10800.00000 0 9648932.183 -7272073.244 -22456304.140 10 0 61015 11700.00000 0 10291575.129 -4548830.306 -22885315.012 10 0 61015 12600.00000 0 11134307.133 -1854262.987 -22869576.748 10 0 61015 13500.00000 0 12156303.203 745848.435 -22409479.227 10 0 61015 14400.00000 0 13325704.418 3190636.977 -21514043.273 10 0 61015 15300.00000 0 14600897.621 5426435.466 -20200739.520 10 0 61015 16200.00000 0 15932222.653 7408756.477 -18495144.071 10 0 61015 17100.00000 0 17264035.564 9103884.704 -16430437.799 10 0 61015 18000.00000 0 18537041.320 10490016.902 -14046759.124 10 0 61015 18900.00000 0 19690798.231 11557903.549 -11390422.770 10 0 61015 19800.00000 0 20666289.111 12310967.091 -8513019.603 10 0 61015 20700.00000 0 21408451.283 12764893.470 -5470414.953 10 0 61015 21600.00000 0 21868559.243 12946715.651 -2321664.799 10 0 61015 22500.00000 0 22006359.883 12893429.026 872129.190 10 0 61015 23400.00000 0 21791870.489 12650198.110 4049003.487 10 0 61015 24300.00000 0 21206763.849 12268231.012 7147332.463 10 0 61015 25200.00000 0 20245282.037 11802411.926 10107020.803 10 0 61015 26100.00000 0 18914640.168 11308791.936 12870665.522 10 0 61015 27000.00000 0 17234902.693 10842044.174 15384665.233 10 0 61015 27900.00000 0 15238336.738 10452990.716 17600255.475 10 0 61015 28800.00000 0 12968268.771 10186305.435 19474450.409 10 0 61015 29700.00000 0 10477491.356 10078489.522 20970873.111 10 0 61015 30600.00000 0 7826285.365 10156204.921 22060458.900 10 0 61015 31500.00000 0 5080138.827 10435035.939 22722018.481 10 0 61015 32400.00000 0 2307256.081 10918731.419 22942650.346 10 0 61015 33300.00000 0 -424040.528 11598959.900 22717994.559 10 0 61015 34200.00000 0 -3047909.631 12455588.831 22052322.915 10 0 61015 35100.00000 0 -5503483.640 13457477.087 20958463.329 10 0 61015 36000.00000 0 -7737152.773 14563748.620 19457559.333 10 0 61015 36900.00000 0 -9704546.074 15725494.842 17578668.522 10 0 61015 37800.00000 0 -11372127.586 16887835.190 15358206.859 10 0 61015 38700.00000 0 -12718341.637 17992250.064 12839248.664 10 0 61015 39600.00000 0 -13734259.798 18979088.426 10070695.124 10 0 61015 40500.00000 0 -14423702.818 19790144.562 7106326.879 10 0 61015 41400.00000 0 -14802832.903 20371195.213 4003758.752 10 0 61015 42300.00000 0 -14899233.985 20674389.380 823317.039 10 0 61015 43200.00000 0 -14750519.404 20660389.125 -2373138.494 10 0 61015 44100.00000 0 -14402526.567 20300169.887 -5523424.343 10 0 61015 45000.00000 0 -13907175.774 19576403.168 -8566250.328 10 0 61015 45900.00000 0 -13320084.761 18484362.101 -11442419.385 10 0 61015 46800.00000 0 -12698040.948 17032310.660 -14095985.847 10 0 61015 47700.00000 0 -12096439.266 15241359.264 -16475348.876 10 0 61015 48600.00000 0 -11566794.860 13144792.117 -18534259.245 10 0 61015 49500.00000 0 -11154436.422 10786894.000 -20232719.631 10 0 61015 50400.00000 0 -10896478.103 8221325.331 -21537760.889 10 0 61015 51300.00000 0 -10820155.771 5509113.132 -22424079.514 10 0 61015 52200.00000 0 -10941597.773 2716341.530 -22874524.391 10 0 61015 53100.00000 0 -11265081.823 -88362.249 -22880423.940 10 0 61015 54000.00000 0 -11782808.973 -2836442.132 -22441748.012 10 0 61015 54900.00000 0 -12475203.841 -5462019.620 -21567101.932 10 0 61015 55800.00000 0 -13311728.121 -7904384.731 -20273553.366 10 0 61015 56700.00000 0 -14252172.856 -10110268.925 -18586295.707 10 0 61015 57600.00000 0 -15248374.975 -12035806.703 -16538154.731 10 0 61015 58500.00000 0 -16246285.739 -13648105.516 -14168948.191 10 0 61015 59400.00000 0 -17188304.106 -14926360.086 -11524710.747 10 0 61015 60300.00000 0 -18015776.828 -15862466.176 -8656799.206 10 0 61015 61200.00000 0 -18671560.097 -16461109.685 -5620895.358 10 0 61015 62100.00000 0 -19102534.939 -16739328.900 -2475925.702 10 0 61015 63000.00000 0 -19261970.420 -16725569.620 717081.011 10 0 61015 63900.00000 0 -19111635.100 -16458274.112 3896176.228 10 0 61015 64800.00000 0 -18623567.663 -15984064.223 6999691.063 10 0 61015 65700.00000 0 -17781431.958 -15355595.940 9967429.574 10 0 61015 66600.00000 0 -16581399.053 -14629176.234 12741832.732 10 0 61015 67500.00000 0 -15032518.674 -13862242.902 15269090.712 10 0 61015 68400.00000 0 -13156563.694 -13110813.585 17500182.237 10 0 61015 69300.00000 0 -10987353.256 -12427011.308 19391821.222 10 0 61015 70200.00000 0 -8569581.718 -11856770.478 20907292.845 10 0 61015 71100.00000 0 -5957201.026 -11437819.594 22017163.367 10 0 61015 72000.00000 0 -3211422.606 -11198025.325 22699850.372 10 0 61015 72900.00000 0 -398420.472 -11154167.468 22942042.721 10 0 61015 73800.00000 0 2413170.375 -11311196.387 22738962.234 10 0 61015 74700.00000 0 5154857.671 -11662004.445 22094461.892 10 0 61015 75600.00000 0 7760890.822 -12187721.564 21020958.340 10 0 61015 76500.00000 0 10170748.158 -12858523.215 19539199.342 10 0 61015 77400.00000 0 12331409.945 -13634917.650 17677869.939 10 0 61015 78300.00000 0 14199323.204 -14469459.021 15473044.015 10 0 61015 79200.00000 0 15741976.952 -15308814.974 12967491.013 10 0 61015 80100.00000 0 16939022.403 -16096102.026 10209850.459 10 0 61015 81000.00000 0 17782891.549 -16773390.432 7253689.737 10 0 61015 81900.00000 0 18278888.504 -17284272.660 4156463.094 10 0 61015 82800.00000 0 18444750.070 -17576386.449 978392.160 10 0 61015 83700.00000 0 18309694.550 -17603785.037 -2218709.909 10 0 61015 84600.00000 0 17912999.483 -17329053.301 -5372647.194 10 0 61015 85500.00000 0 17302169.112 -16725079.158 -8422058.297 10 0 61016 0.00000 0 16530769.953 -15776404.237 -11307617.290 10 0 61016 900.00000 0 15656026.423 -14480095.008 -13973195.588 10 0 61016 1800.00000 0 14736280.156 -12846097.865 -16366957.511 10 0 61016 2700.00000 0 13828419.801 -10897060.582 -18442372.803 10 0 61016 3600.00000 0 12985391.499 -8667628.016 -20159122.251 10 0 61016 4500.00000 0 12253895.149 -6203240.562 -21483880.330 10 0 61016 5400.00000 0 11672363.802 -3558485.204 -22390959.681 10 0 61016 6300.00000 0 11269311.194 -795067.610 -22862805.367 10 0 61016 7200.00000 0 11062116.638 2020510.527 -22890329.899 10 0 61016 8100.00000 0 11056297.828 4819472.636 -22473083.183 10 0 61016 9000.00000 0 11245301.471 7533382.598 -21619254.706 10 0 61016 9900.00000 0 11610819.840 10096746.147 -20345508.409 10 0 61016 10800.00000 0 12123619.240 12449491.070 -18676653.853 10 0 61016 11700.00000 0 12744844.934 14539224.082 -16645160.248 10 0 61016 12600.00000 0 13427747.139 16323171.556 -14290522.895 10 0 61016 13500.00000 0 14119755.057 17769724.564 -11658494.320 10 0 61016 14400.00000 0 14764811.347 18859525.134 -8800194.923 10 0 61016 15300.00000 0 15305868.488 19586049.714 -5771120.379 10 0 61016 16200.00000 0 15687441.704 19955666.818 -2630064.956 10 0 61016 17100.00000 0 15858110.703 19987167.757 562018.384 10 0 61016 18000.00000 0 15772864.613 19710791.312 3743198.947 10 0 61016 18900.00000 0 15395191.080 19166784.352 6851767.429 10 0 61016 19800.00000 0 14698821.195 18403559.679 9827429.965 10 0 61016 20700.00000 0 13669056.361 17475529.176 12612474.003 10 0 61016 21600.00000 0 12303620.701 16440703.701 15152883.571 10 0 61016 22500.00000 0 10613002.391 15358160.779 17399382.636 10 0 61016 23400.00000 0 8620268.654 14285486.463 19308386.678 10 0 61016 24300.00000 0 6360360.948 13276298.587 20842844.528 10 0 61016 25200.00000 0 3878898.451 12377955.080 21972954.679 10 0 61016 26100.00000 0 1230538.272 11629543.175 22676742.585 10 0 61016 27000.00000 0 -1523040.862 11060233.525 22940488.151 10 0 61016 27900.00000 0 -4315449.163 10688068.044 22758995.253 10 0 61016 28800.00000 0 -7078096.014 10519232.266 22135697.970 10 0 61016 29700.00000 0 -9742796.952 10547842.820 21082601.147 10 0 61016 30600.00000 0 -12244370.286 10756259.248 19620055.813 10 0 61016 31500.00000 0 -14523116.303 11115907.445 17776373.044 10 0 61016 32400.00000 0 -16527076.588 11588580.553 15587282.857 10 0 61016 33300.00000 0 -18213979.809 12128163.014 13095247.695 10 0 61016 34200.00000 0 -19552792.968 12682705.386 10348643.053 10 0 61016 35100.00000 0 -20524813.415 13196762.542 7400820.530 10 0 61016 36000.00000 0 -21124255.981 13613896.294 4309071.171 10 0 61016 36900.00000 0 -21358310.652 13879236.211 1133509.281 10 0 61016 37800.00000 0 -21246668.644 13941989.520 -2064101.263 10 0 61016 38700.00000 0 -20820537.154 13757792.903 -5221554.786 10 0 61016 39600.00000 0 -20121184.906 13290805.440 -8277421.293 10 0 61016 40500.00000 0 -19198080.537 12515452.902 -11172249.050 10 0 61016 41400.00000 0 -18106703.220 11417748.352 -13849727.973 10 0 61016 42300.00000 0 -16906118.789 9996132.046 -16257790.353 10 0 61016 43200.00000 0 -15656424.463 8261794.126 -18349626.945 10 0 61016 44100.00000 0 -14416170.543 6238465.515 -20084598.384 10 0 61016 45000.00000 0 -13239868.232 3961685.000 -21429024.144 10 0 61016 45900.00000 0 -12175688.615 1477572.511 -22356833.991 10 0 61016 46800.00000 0 -11263449.491 -1158840.696 -22850069.733 10 0 61016 47700.00000 0 -10532974.217 -3885655.723 -22899228.103 10 0 61016 48600.00000 0 -10002890.838 -6636438.920 -22503438.784 10 0 61016 49500.00000 0 -9679921.016 -9342747.427 -21670474.716 10 0 61016 50400.00000 0 -9558687.616 -11936742.848 -20416595.027 10 0 61016 51300.00000 0 -9622047.978 -14353785.122 -18766223.996 10 0 61016 52200.00000 0 -9841937.842 -16534899.513 -16751472.527 10 0 61016 53100.00000 0 -10180689.540 -18429014.958 -14411511.498 10 0 61016 54000.00000 0 -10592768.210 -19994881.605 -11791809.170 10 0 61016 54900.00000 0 -11026852.282 -21202588.681 -8943247.334 10 0 61016 55800.00000 0 -11428170.093 -22034620.438 -5921133.320 10 0 61016 56700.00000 0 -11740993.721 -22486407.226 -2784126.953 10 0 61016 57600.00000 0 -11911184.560 -22566349.725 406896.770 10 0 61016 58500.00000 0 -11888682.963 -22295316.362 3590027.166 10 0 61016 59400.00000 0 -11629836.659 -21705635.947 6703516.646 10 0 61016 60300.00000 0 -11099469.416 -20839628.555 9686975.553 10 0 61016 61200.00000 0 -10272602.348 -19747736.931 12482539.919 10 0 61016 62100.00000 0 -9135754.822 -18486337.249 15035989.701 10 0 61016 63000.00000 0 -7687769.519 -17115321.256 17297796.085 10 0 61016 63900.00000 0 -5940126.053 -15695551.219 19224077.949 10 0 61016 64800.00000 0 -3916728.833 -14286294.123 20777449.410 10 0 61016 65700.00000 0 -1653176.682 -12942742.298 21927742.565 10 0 61016 66600.00000 0 804456.824 -11713723.815 22652591.828 10 0 61016 67500.00000 0 3401283.064 -10639698.040 22937868.931 10 0 61016 68400.00000 0 6075630.712 -9751119.748 22777960.279 10 0 61016 69300.00000 0 8761367.768 -9067239.939 22175881.225 10 0 61016 70200.00000 0 11390418.232 -8595393.299 21143224.701 10 0 61016 71100.00000 0 13895370.103 -8330802.060 19699944.608 10 0 61016 72000.00000 0 16212067.232 -8256904.517 17873977.393 10 0 61016 72900.00000 0 18282077.913 -8346194.502 15700708.238 10 0 61016 73800.00000 0 20054937.785 -8561536.651 13222291.309 10 0 61016 74700.00000 0 21490073.622 -8857902.152 10486836.448 10 0 61016 75600.00000 0 22558327.589 -9184451.719 7547477.478 10 0 61016 76500.00000 0 23243018.045 -9486877.592 4461339.898 10 0 61016 77400.00000 0 23540492.240 -9709905.054 1288428.011 10 0 61016 78300.00000 0 23460147.643 -9799846.871 -1909546.525 10 0 61016 79200.00000 0 23023921.091 -9707101.543 -5070371.379 10 0 61016 80100.00000 0 22265267.534 -9388488.403 -8132551.116 10 0 61016 81000.00000 0 21227671.860 -8809319.420 -11036511.046 10 0 61016 81900.00000 0 19962757.162 -7945118.740 -13725763.054 10 0 61016 82800.00000 0 18528069.891 -6782915.951 -16148009.858 10 0 61016 83700.00000 0 16984635.948 -5322057.314 -18256165.671 10 0 61016 84600.00000 0 15394391.242 -3574499.644 -20009273.103 10 0 61016 85500.00000 0 13817595.309 -1564573.547 -21373298.396 99